Weather History for Homer, AK

Change the Weather History Date:

Monday, May 21, 2012

  Actual Average Record
Temperature  
Mean Temperature 44 °F -  
Max Temperature 52 °F 50 °F 66 °F (2002)
Min Temperature 39 °F 36 °F 26 °F (1972)
Degree Days  
Heating Degree Days 22    
Moisture  
Dew Point 40 °F    
Average Humidity 89    
Maximum Humidity 100    
Minimum Humidity 64    
Precipitation  
Precipitation 0.02 in - - ()
Sea Level Pressure  
Sea Level Pressure 29.65 in    
Wind  
Wind Speed 3 mph (SW)    
Max Wind Speed 15 mph    
Max Gust Speed -    
Visibility 10 miles    
Events Rain    
Averages and records for this station are not official NWS values.
T = Trace of Precipitation, MM = Missing Value Source: NWS Daily Summary

Daily Weather History Graph

Daily Weather History Graph

Search for Another Location

Airport:

Trip Planner

Search our weather history database for the weather conditions in past years. The results will help you decide how hot, cold, wet, or windy it might be!

Date:

Astronomy

May. 21, 2012 Rise Set
Actual Time 5:16 AM AKDT 10:50 PM AKDT
Civil Twilight 4:08 AM AKDT 11:59 PM AKDT
Nautical Twilight 2:34 AM AKDT 1:30 AM AKDT
Astronomical Twilight Sun does not rise Sun does not rise
Moon 5:42 AM AKDT (5/21) 11:55 PM AKDT (5/21)
Length of Visible Light 19h 50m
Length of Day
17h 34m
New Moon, 1% of the Moon is Illuminated
May 21
New Moon
May 28
First Quarter
Jun 4
Full
Jun 11
Last Quarter
Jun 19
New

Hourly Weather History & Observations

Time (AKDT) Temp. Windchill Dew Point Humidity Pressure Visibility Wind Dir Wind Speed Gust Speed Precip Events Conditions
12:53 AM 42.1 °F - 41.0 °F 96% 29.73 in 10.0 mi Calm Calm - 0.00 in   Overcast
1:53 AM 41.0 °F - 39.9 °F 96% 29.72 in 10.0 mi Calm Calm - N/A   Overcast
2:53 AM 41.0 °F 38.0 °F 39.9 °F 96% 29.71 in 10.0 mi WSW 4.6 mph - 0.00 in Rain Light Rain
3:38 AM 41.0 °F - 39.2 °F 93% 29.71 in 10.0 mi Calm Calm - 0.01 in Rain Light Rain
3:53 AM 41.0 °F - 41.0 °F 100% 29.70 in 10.0 mi Calm Calm - 0.01 in Rain Light Rain
4:02 AM 39.2 °F - 39.2 °F 100% 29.70 in 10.0 mi Calm Calm - 0.00 in Rain Light Rain
4:53 AM 39.9 °F - 39.9 °F 100% 29.69 in 10.0 mi Calm Calm - 0.01 in   Overcast
5:08 AM 39.2 °F - 39.2 °F 100% 29.69 in 10.0 mi Calm Calm - N/A   Overcast
5:26 AM 39.2 °F - 39.2 °F 100% 29.69 in 10.0 mi Calm Calm - N/A   Overcast
5:53 AM 39.9 °F - 39.9 °F 100% 29.68 in 7.0 mi Calm Calm - N/A   Overcast
6:53 AM 39.9 °F - 39.9 °F 100% 29.67 in 7.0 mi Calm Calm - N/A   Mostly Cloudy
7:53 AM 41.0 °F - 41.0 °F 100% 29.67 in 7.0 mi Calm Calm - N/A   Mostly Cloudy
8:53 AM 42.1 °F - 39.9 °F 92% 29.65 in 10.0 mi Calm Calm - N/A   Mostly Cloudy
9:53 AM 42.1 °F 40.2 °F 39.9 °F 92% 29.65 in 10.0 mi SSE 3.5 mph - N/A   Mostly Cloudy
10:53 AM 43.0 °F 41.3 °F 41.0 °F 93% 29.63 in 10.0 mi Variable 3.5 mph - N/A   Mostly Cloudy
11:53 AM 46.0 °F 43.9 °F 42.1 °F 86% 29.62 in 10.0 mi Variable 4.6 mph - N/A   Mostly Cloudy
12:53 PM 46.0 °F 41.9 °F 39.0 °F 76% 29.62 in 10.0 mi SW 8.1 mph - N/A   Mostly Cloudy
1:53 PM 48.9 °F - 37.0 °F 64% 29.61 in 10.0 mi WSW 8.1 mph - N/A   Mostly Cloudy
2:53 PM 48.9 °F - 39.9 °F 71% 29.60 in 10.0 mi SW 10.4 mph - N/A   Mostly Cloudy
3:53 PM 46.9 °F - 41.0 °F 80% 29.60 in 10.0 mi SW 12.7 mph - N/A   Mostly Cloudy
4:53 PM 46.0 °F 39.6 °F 39.9 °F 79% 29.60 in 10.0 mi WSW 15.0 mph - N/A   Mostly Cloudy
5:53 PM 46.0 °F 40.2 °F 39.0 °F 76% 29.60 in 10.0 mi WSW 12.7 mph - N/A   Overcast
6:53 PM 46.0 °F 40.6 °F 39.9 °F 79% 29.59 in 10.0 mi SW 11.5 mph - N/A   Overcast
7:53 PM 45.0 °F 40.6 °F 39.9 °F 82% 29.60 in 10.0 mi WSW 8.1 mph - N/A   Overcast
8:53 PM 45.0 °F 41.2 °F 39.9 °F 82% 29.61 in 10.0 mi West 6.9 mph - N/A   Overcast
9:53 PM 44.1 °F 40.8 °F 39.9 °F 85% 29.62 in 10.0 mi SW 5.8 mph - N/A   Overcast
10:53 PM 43.0 °F 40.3 °F 41.0 °F 93% 29.64 in 10.0 mi SW 4.6 mph - N/A   Overcast
11:53 PM 44.1 °F - 39.9 °F 85% 29.65 in 10.0 mi Calm Calm - N/A   Overcast